EZY78ME EGPH-EGGD

Flight info

Callsign EZY78ME
Flight time 1h 4m
Altitude 33000
Route GOSAM P600 FENIK L612 NAVSO DCT ADZOP DCT EGTOC DCT NOKIN N862 KARNO DCT ALHUP DCT LUCSA N862 WEVBE
Aircraft A320/M-SDE3FGHIRWY/LB1

Departure

Time 2026-05-07 18:45
Airport Edinburgh Airport (EGPH)

Arrival

Time 2026-05-07 19:49
Airport Bristol Airport (EGGD)
Time Latitude Longitude Altitude Speed Heading
2026-05-07 18:23 55.94702 -3.36602 117 ft 0 kts 89°
2026-05-07 18:37 55.94702 -3.36620 116 ft 3 kts 89°
2026-05-07 18:37 55.94702 -3.36656 115 ft 3 kts 89°
2026-05-07 18:37 55.94701 -3.36687 116 ft 3 kts 81°
2026-05-07 18:37 55.94696 -3.36717 112 ft 3 kts 44°
2026-05-07 18:38 55.94680 -3.36734 114 ft 3 kts
2026-05-07 18:38 55.94670 -3.36735 113 ft 0 kts 359°
2026-05-07 18:40 55.94672 -3.36735 113 ft 2 kts 359°
2026-05-07 18:40 55.94694 -3.36736 113 ft 4 kts 359°
2026-05-07 18:40 55.94740 -3.36737 116 ft 11 kts 355°
2026-05-07 18:41 55.94839 -3.36777 116 ft 19 kts
2026-05-07 18:41 55.94970 -3.36770 115 ft 22 kts 58°
2026-05-07 18:41 55.95042 -3.36552 113 ft 19 kts 59°
2026-05-07 18:41 55.95110 -3.36354 115 ft 18 kts 59°
2026-05-07 18:42 55.95170 -3.36173 115 ft 16 kts 60°
2026-05-07 18:42 55.95237 -3.35972 111 ft 22 kts 59°
2026-05-07 18:42 55.95329 -3.35700 115 ft 28 kts 58°
2026-05-07 18:42 55.95414 -3.35451 114 ft 14 kts 59°
2026-05-07 18:43 55.95486 -3.35427 115 ft 11 kts 330°
2026-05-07 18:43 55.95490 -3.35431 116 ft 0 kts 330°
2026-05-07 18:43 55.95491 -3.35432 116 ft 1 kts 330°
2026-05-07 18:43 55.95522 -3.35464 115 ft 10 kts 330°
2026-05-07 18:44 55.95556 -3.35612 113 ft 17 kts 236°
2026-05-07 18:44 55.95482 -3.35830 112 ft 39 kts 239°
2026-05-07 18:44 55.95215 -3.36618 113 ft 105 kts 239°
2026-05-07 18:44 55.94739 -3.38001 148 ft 152 kts 239°
2026-05-07 18:45 55.94197 -3.39599 877 ft 148 kts 235°
2026-05-07 18:45 55.93655 -3.41168 1590 ft 151 kts 235°
2026-05-07 18:45 55.93070 -3.42842 1933 ft 172 kts 234°
2026-05-07 18:45 55.92394 -3.44772 2228 ft 196 kts 235°
2026-05-07 18:46 55.91629 -3.46973 2669 ft 221 kts 235°
2026-05-07 18:46 55.90792 -3.49414 3257 ft 238 kts 239°
2026-05-07 18:46 55.90289 -3.52273 4101 ft 246 kts 257°
2026-05-07 18:46 55.90001 -3.55298 5048 ft 249 kts 257°
2026-05-07 18:47 55.89702 -3.58365 5976 ft 252 kts 258°
2026-05-07 18:47 55.89396 -3.61466 6865 ft 255 kts 257°
2026-05-07 18:47 55.89085 -3.64592 7738 ft 258 kts 257°
2026-05-07 18:47 55.88865 -3.66787 8328 ft 260 kts 257°
2026-05-07 18:48 55.88827 -3.67162 8429 ft 261 kts 257°
2026-05-07 18:48 55.88757 -3.67861 8615 ft 262 kts 257°
2026-05-07 18:48 55.88696 -3.68456 8767 ft 263 kts 257°
2026-05-07 18:49 55.88480 -3.70587 9395 ft 262 kts 257°
2026-05-07 18:49 55.88209 -3.73257 10038 ft 266 kts 257°
2026-05-07 18:50 55.87875 -3.76552 10435 ft 285 kts 257°
2026-05-07 18:50 55.87503 -3.80180 10655 ft 309 kts 257°
2026-05-07 18:50 55.87113 -3.84043 11023 ft 324 kts 258°
2026-05-07 18:50 55.86718 -3.88037 11659 ft 329 kts 257°
2026-05-07 18:51 55.86527 -3.89975 12012 ft 331 kts 257°
2026-05-07 18:51 55.86165 -3.93643 12660 ft 335 kts 257°
2026-05-07 18:51 55.85756 -3.97745 13400 ft 338 kts 257°
2026-05-07 18:51 55.85337 -4.01900 14072 ft 342 kts 257°
2026-05-07 18:52 55.84915 -4.06091 14708 ft 346 kts 257°
2026-05-07 18:52 55.84380 -4.10272 15330 ft 346 kts 247°
2026-05-07 18:52 55.83224 -4.14006 15938 ft 346 kts 230°
2026-05-07 18:52 55.81462 -4.16901 16548 ft 348 kts 214°
2026-05-07 18:53 55.79280 -4.18760 17170 ft 352 kts 197°
2026-05-07 18:53 55.76834 -4.19256 17777 ft 359 kts 179°
2026-05-07 18:53 55.74382 -4.18212 18342 ft 369 kts 162°
2026-05-07 18:53 55.71989 -4.16520 18838 ft 372 kts 162°
2026-05-07 18:54 55.69582 -4.14789 19319 ft 375 kts 161°
2026-05-07 18:54 55.67175 -4.13052 19809 ft 378 kts 161°
2026-05-07 18:54 55.64729 -4.11289 20294 ft 381 kts 161°
2026-05-07 18:54 55.62261 -4.09517 20788 ft 384 kts 162°
2026-05-07 18:55 55.59774 -4.07737 21261 ft 387 kts 162°
2026-05-07 18:55 55.57260 -4.05948 21740 ft 390 kts 162°
2026-05-07 18:55 55.54722 -4.04234 22215 ft 391 kts 164°
2026-05-07 18:55 55.52140 -4.02706 22681 ft 393 kts 166°
2026-05-07 18:56 55.49513 -4.01286 23136 ft 395 kts 167°
2026-05-07 18:56 55.46867 -3.99915 23569 ft 398 kts 167°
2026-05-07 18:56 55.44198 -3.98538 23892 ft 402 kts 167°
2026-05-07 18:56 55.41510 -3.97132 24253 ft 404 kts 166°
2026-05-07 18:57 55.38796 -3.95687 24445 ft 412 kts 166°
2026-05-07 18:57 55.36028 -3.94192 24568 ft 420 kts 166°
2026-05-07 18:57 55.33211 -3.92656 24691 ft 427 kts 166°
2026-05-07 18:57 55.30353 -3.91093 24817 ft 434 kts 166°
2026-05-07 18:58 55.27453 -3.89510 24941 ft 440 kts 166°
2026-05-07 18:58 55.24510 -3.87911 25065 ft 445 kts 166°
2026-05-07 18:58 55.21538 -3.86305 25194 ft 450 kts 166°
2026-05-07 18:58 55.19548 -3.85231 25254 ft 453 kts 166°
2026-05-07 18:59 55.16524 -3.83601 25415 ft 456 kts 165°
2026-05-07 18:59 55.13494 -3.81965 25715 ft 456 kts 165°
2026-05-07 18:59 55.10463 -3.80328 26076 ft 454 kts 165°
2026-05-07 18:59 55.07445 -3.78704 26461 ft 452 kts 165°
2026-05-07 19:00 55.04442 -3.77095 26855 ft 451 kts 165°
2026-05-07 19:00 55.01448 -3.75500 27229 ft 449 kts 165°
2026-05-07 19:00 54.98464 -3.73916 27625 ft 447 kts 165°
2026-05-07 19:00 54.95495 -3.72343 28025 ft 446 kts 165°
2026-05-07 19:01 54.92534 -3.70771 28354 ft 446 kts 165°
2026-05-07 19:01 54.89567 -3.69193 28688 ft 445 kts 165°
2026-05-07 19:01 54.86603 -3.67618 29065 ft 444 kts 165°
2026-05-07 19:01 54.83652 -3.66049 29452 ft 443 kts 165°
2026-05-07 19:02 54.80707 -3.64485 29850 ft 441 kts 165°
2026-05-07 19:02 54.77775 -3.62935 30226 ft 440 kts 165°
2026-05-07 19:02 54.74854 -3.61397 30561 ft 438 kts 165°
2026-05-07 19:02 54.71929 -3.59858 30889 ft 437 kts 165°
2026-05-07 19:03 54.69023 -3.58331 31196 ft 436 kts 165°
2026-05-07 19:03 54.66151 -3.56827 31457 ft 436 kts 165°
2026-05-07 19:03 54.63241 -3.55311 31745 ft 436 kts 165°
2026-05-07 19:03 54.60344 -3.53797 32061 ft 435 kts 165°
2026-05-07 19:04 54.57453 -3.52281 32380 ft 434 kts 165°
2026-05-07 19:04 54.54565 -3.50767 32686 ft 433 kts 165°
2026-05-07 19:04 54.51679 -3.49258 32936 ft 433 kts 165°
2026-05-07 19:05 54.45922 -3.46262 33001 ft 432 kts 165°
2026-05-07 19:05 54.40151 -3.43272 32992 ft 435 kts 165°
2026-05-07 19:06 54.34349 -3.40269 32995 ft 436 kts 165°
2026-05-07 19:06 54.25620 -3.35778 33004 ft 436 kts 165°
2026-05-07 19:07 54.19809 -3.32798 32996 ft 436 kts 165°
2026-05-07 19:07 54.13987 -3.29834 32974 ft 437 kts 165°
2026-05-07 19:08 54.08143 -3.26858 32983 ft 439 kts 165°
2026-05-07 19:08 54.02279 -3.23877 32985 ft 440 kts 165°
2026-05-07 19:09 53.96382 -3.21098 32986 ft 439 kts 168°
2026-05-07 19:09 53.90409 -3.18869 32974 ft 440 kts 170°
2026-05-07 19:10 53.84394 -3.16763 32979 ft 441 kts 170°
2026-05-07 19:10 53.78418 -3.14572 32981 ft 442 kts 169°
2026-05-07 19:11 53.72410 -3.12290 32972 ft 443 kts 169°
2026-05-07 19:11 53.66395 -3.09998 32974 ft 444 kts 169°
2026-05-07 19:12 53.60364 -3.07736 33019 ft 443 kts 169°
2026-05-07 19:12 53.54373 -3.05512 33032 ft 440 kts 169°
2026-05-07 19:13 53.48405 -3.03286 33034 ft 438 kts 169°
2026-05-07 19:13 53.42465 -3.01077 33050 ft 437 kts 169°
2026-05-07 19:14 53.36530 -2.98881 33044 ft 436 kts 169°
2026-05-07 19:14 53.30600 -2.96700 33044 ft 436 kts 169°
2026-05-07 19:15 53.24680 -2.94524 33035 ft 436 kts 169°
2026-05-07 19:15 53.18757 -2.92347 33026 ft 436 kts 170°
2026-05-07 19:16 53.12831 -2.90174 33020 ft 436 kts 170°
2026-05-07 19:16 53.06867 -2.88489 33017 ft 433 kts 180°
2026-05-07 19:17 53.00863 -2.88873 33014 ft 432 kts 185°
2026-05-07 19:17 52.94862 -2.89384 33000 ft 432 kts 185°
2026-05-07 19:18 52.88885 -2.89972 32997 ft 432 kts 189°
2026-05-07 19:18 52.85909 -2.90651 32337 ft 433 kts 190°
2026-05-07 19:18 52.82882 -2.91363 30986 ft 445 kts 190°
2026-05-07 19:19 52.79785 -2.92097 29776 ft 453 kts 190°
2026-05-07 19:19 52.76660 -2.92835 28903 ft 451 kts 190°
2026-05-07 19:19 52.73585 -2.93557 28334 ft 442 kts 190°
2026-05-07 19:19 52.70551 -2.94168 27651 ft 437 kts 185°
2026-05-07 19:20 52.67526 -2.94423 26975 ft 432 kts 185°
2026-05-07 19:20 52.64540 -2.94666 26322 ft 428 kts 185°
2026-05-07 19:20 52.61584 -2.94908 25677 ft 423 kts 185°
2026-05-07 19:20 52.58650 -2.95152 25038 ft 420 kts 185°
2026-05-07 19:21 52.55747 -2.95397 24405 ft 416 kts 185°
2026-05-07 19:21 52.52853 -2.95639 23777 ft 413 kts 185°
2026-05-07 19:21 52.49995 -2.95874 23085 ft 410 kts 185°
2026-05-07 19:21 52.47160 -2.96103 22509 ft 404 kts 184°
2026-05-07 19:22 52.44366 -2.96329 21952 ft 399 kts 184°
2026-05-07 19:22 52.41615 -2.96552 21437 ft 393 kts 184°
2026-05-07 19:22 52.38902 -2.96774 20921 ft 388 kts 184°
2026-05-07 19:22 52.36226 -2.96998 20442 ft 383 kts 184°
2026-05-07 19:23 52.33584 -2.97218 19973 ft 378 kts 184°
2026-05-07 19:23 52.30974 -2.97433 19506 ft 373 kts 184°
2026-05-07 19:23 52.28393 -2.97642 19052 ft 369 kts 184°
2026-05-07 19:23 52.25838 -2.97848 18583 ft 366 kts 184°
2026-05-07 19:24 52.23304 -2.98053 18085 ft 363 kts 184°
2026-05-07 19:24 52.20790 -2.98252 17596 ft 360 kts 184°
2026-05-07 19:24 52.18301 -2.98448 17117 ft 357 kts 184°
2026-05-07 19:24 52.15832 -2.98646 16632 ft 354 kts 184°
2026-05-07 19:25 52.13379 -2.98847 16150 ft 352 kts 184°
2026-05-07 19:25 52.10930 -2.99051 15843 ft 356 kts 184°
2026-05-07 19:25 52.08426 -2.99262 15762 ft 362 kts 184°
2026-05-07 19:25 52.05909 -2.99471 15640 ft 362 kts 184°
2026-05-07 19:26 52.03392 -2.99677 15497 ft 362 kts 184°
2026-05-07 19:26 52.00880 -2.99879 15363 ft 361 kts 184°
2026-05-07 19:26 51.98369 -3.00076 15222 ft 361 kts 184°
2026-05-07 19:26 51.95863 -3.00054 15082 ft 361 kts 175°
2026-05-07 19:27 51.93393 -2.99289 14682 ft 364 kts 165°
2026-05-07 19:27 51.90983 -2.97891 13947 ft 370 kts 161°
2026-05-07 19:27 51.88569 -2.96422 13260 ft 371 kts 161°
2026-05-07 19:27 51.86161 -2.94960 12616 ft 369 kts 161°
2026-05-07 19:28 51.83762 -2.93512 11972 ft 367 kts 161°
2026-05-07 19:28 51.81392 -2.92094 11665 ft 356 kts 161°
2026-05-07 19:28 51.79115 -2.90739 11543 ft 341 kts 161°
2026-05-07 19:28 51.76940 -2.89446 11415 ft 327 kts 161°
2026-05-07 19:29 51.74846 -2.88203 11278 ft 314 kts 161°
2026-05-07 19:29 51.72830 -2.87009 11163 ft 303 kts 161°
2026-05-07 19:29 51.70878 -2.85892 11013 ft 292 kts 166°
2026-05-07 19:29 51.68925 -2.85047 10676 ft 290 kts 167°
2026-05-07 19:30 51.66986 -2.84210 10353 ft 288 kts 167°
2026-05-07 19:30 51.65045 -2.83368 9987 ft 287 kts 167°
2026-05-07 19:30 51.63131 -2.82537 9630 ft 284 kts 166°
2026-05-07 19:30 51.61236 -2.81712 9060 ft 281 kts 166°
2026-05-07 19:31 51.59345 -2.80889 8656 ft 280 kts 166°
2026-05-07 19:31 51.57464 -2.80073 8233 ft 279 kts 166°
2026-05-07 19:31 51.55603 -2.79266 7867 ft 276 kts 166°
2026-05-07 19:31 51.53751 -2.78465 7455 ft 272 kts 166°
2026-05-07 19:32 51.51938 -2.77681 6983 ft 268 kts 166°
2026-05-07 19:32 51.50163 -2.76916 6605 ft 264 kts 166°
2026-05-07 19:32 51.48445 -2.76180 6525 ft 241 kts 166°
2026-05-07 19:32 51.46873 -2.75508 6438 ft 234 kts 166°
2026-05-07 19:33 51.45303 -2.74835 6338 ft 233 kts 166°
2026-05-07 19:33 51.43741 -2.74164 6218 ft 232 kts 166°
2026-05-07 19:33 51.42180 -2.73489 6104 ft 231 kts 166°
2026-05-07 19:33 51.40621 -2.72815 6017 ft 232 kts 165°
2026-05-07 19:34 51.39097 -2.71985 5900 ft 232 kts 149°
2026-05-07 19:34 51.37980 -2.70149 5744 ft 235 kts 118°
2026-05-07 19:34 51.37506 -2.67656 5473 ft 235 kts 104°
2026-05-07 19:34 51.37136 -2.65107 5216 ft 234 kts 105°
2026-05-07 19:35 51.36766 -2.62588 4989 ft 229 kts 104°
2026-05-07 19:35 51.36407 -2.60166 4858 ft 219 kts 105°
2026-05-07 19:35 51.36058 -2.57836 4670 ft 213 kts 105°
2026-05-07 19:35 51.35713 -2.55546 4403 ft 211 kts 105°
2026-05-07 19:36 51.35372 -2.53266 4121 ft 210 kts 105°
2026-05-07 19:36 51.35036 -2.51019 3932 ft 204 kts 105°
2026-05-07 19:36 51.34831 -2.48811 3804 ft 200 kts 85°
2026-05-07 19:36 51.35373 -2.46807 3664 ft 198 kts 47°
2026-05-07 19:37 51.36515 -2.45730 3531 ft 189 kts 11°
2026-05-07 19:37 51.37770 -2.45895 3504 ft 180 kts 336°
2026-05-07 19:37 51.38729 -2.47085 3428 ft 174 kts 302°
2026-05-07 19:37 51.39124 -2.48857 3287 ft 169 kts 269°
2026-05-07 19:38 51.39071 -2.50714 3093 ft 165 kts 264°
2026-05-07 19:38 51.39002 -2.52521 2893 ft 160 kts 263°
2026-05-07 19:38 51.38938 -2.54248 2682 ft 151 kts 263°
2026-05-07 19:38 51.38876 -2.55898 2468 ft 145 kts 263°
2026-05-07 19:39 51.38837 -2.56954 2340 ft 142 kts 263°
2026-05-07 19:39 51.38778 -2.58520 2145 ft 140 kts 263°
2026-05-07 19:39 51.38719 -2.60076 1956 ft 140 kts 263°
2026-05-07 19:39 51.38660 -2.61628 1771 ft 140 kts 263°
2026-05-07 19:40 51.38601 -2.63184 1576 ft 139 kts 263°
2026-05-07 19:40 51.38543 -2.64725 1376 ft 139 kts 263°
2026-05-07 19:40 51.38483 -2.66273 1187 ft 140 kts 265°
2026-05-07 19:40 51.38424 -2.67823 999 ft 139 kts 267°
2026-05-07 19:41 51.38363 -2.69413 1289 ft 144 kts 265°
2026-05-07 19:41 51.38339 -2.70990 2111 ft 143 kts 266°
2026-05-07 19:41 51.38168 -2.72663 2476 ft 163 kts 241°
2026-05-07 19:41 51.37456 -2.74184 2472 ft 177 kts 213°
2026-05-07 19:42 51.36300 -2.74721 2497 ft 177 kts 172°
2026-05-07 19:42 51.35189 -2.73914 2506 ft 179 kts 142°
2026-05-07 19:42 51.34350 -2.72453 2507 ft 181 kts 119°
2026-05-07 19:42 51.34101 -2.70488 2503 ft 185 kts 84°
2026-05-07 19:43 51.34583 -2.68571 2509 ft 189 kts 62°
2026-05-07 19:43 51.35160 -2.66683 2510 ft 189 kts 69°
2026-05-07 19:43 51.35665 -2.64734 2514 ft 190 kts 70°
2026-05-07 19:43 51.36160 -2.62783 2509 ft 189 kts 70°
2026-05-07 19:44 51.36610 -2.60818 2511 ft 188 kts 75°
2026-05-07 19:44 51.36974 -2.58840 2509 ft 187 kts 79°
2026-05-07 19:44 51.37270 -2.56786 2506 ft 187 kts 80°
2026-05-07 19:44 51.37547 -2.54757 2514 ft 187 kts 81°
2026-05-07 19:45 51.37849 -2.52763 2506 ft 187 kts 70°
2026-05-07 19:45 51.38680 -2.51247 2517 ft 179 kts 26°
2026-05-07 19:45 51.39860 -2.51115 2509 ft 176 kts 334°
2026-05-07 19:45 51.40625 -2.52497 2508 ft 168 kts 277°
2026-05-07 19:46 51.40375 -2.54208 2514 ft 161 kts 229°
2026-05-07 19:46 51.39686 -2.55629 2432 ft 162 kts 233°
2026-05-07 19:46 51.39167 -2.57230 2296 ft 163 kts 247°
2026-05-07 19:46 51.38896 -2.58969 2078 ft 155 kts 257°
2026-05-07 19:47 51.38757 -2.60633 1875 ft 147 kts 260°
2026-05-07 19:47 51.38664 -2.62253 1686 ft 145 kts 262°
2026-05-07 19:47 51.38589 -2.63850 1486 ft 143 kts 263°
2026-05-07 19:47 51.38521 -2.65440 1289 ft 143 kts 264°
2026-05-07 19:48 51.38457 -2.67027 1092 ft 143 kts 266°
2026-05-07 19:48 51.38395 -2.68615 902 ft 143 kts 268°
2026-05-07 19:48 51.38332 -2.70207 711 ft 143 kts 268°
2026-05-07 19:48 51.38278 -2.71734 612 ft 121 kts 265°
2026-05-07 19:49 51.38233 -2.72801 630 ft 71 kts 266°
2026-05-07 19:49 51.38218 -2.73217 628 ft 22 kts 270°
2026-05-07 19:49 51.38249 -2.73320 625 ft 0 kts 324°
2026-05-07 19:49 51.38301 -2.73340 618 ft 18 kts 359°
2026-05-07 19:50 51.38387 -2.73164 608 ft 25 kts 87°
2026-05-07 19:50 51.38399 -2.72865 606 ft 27 kts 86°
2026-05-07 19:50 51.38412 -2.72569 618 ft 26 kts 86°
2026-05-07 19:50 51.38422 -2.72273 609 ft 28 kts 86°
2026-05-07 19:51 51.38432 -2.71951 606 ft 24 kts 92°
2026-05-07 19:51 51.38437 -2.71682 613 ft 25 kts 86°
2026-05-07 19:51 51.38447 -2.71415 617 ft 23 kts 86°
2026-05-07 19:51 51.38456 -2.71161 615 ft 23 kts 86°
2026-05-07 19:52 51.38459 -2.71106 615 ft 5 kts 86°
2026-05-07 19:52 51.38464 -2.70968 614 ft 15 kts 86°
2026-05-07 19:52 51.38471 -2.70791 612 ft 18 kts 86°
2026-05-07 19:52 51.38477 -2.70585 614 ft 6 kts 90°
2026-05-07 19:53 51.38476 -2.70522 610 ft 5 kts 92°
2026-05-07 19:53 51.38476 -2.70412 609 ft 15 kts 87°
2026-05-07 19:53 51.38499 -2.70363 623 ft 5 kts
2026-05-07 19:53 51.38529 -2.70364 616 ft 4 kts 356°
2026-05-07 19:54 51.38549 -2.70366 609 ft 2 kts 356°
2026-05-07 19:54 51.38551 -2.70366 609 ft 0 kts 356°